| time (UTC) | temp F | wind direction | speed knots | gust knots | rain 1hr in | rain 24hr in | rain mn in | humidity % | barometer mb |
| 20260504034558 | 48 | 0 | 0.0 | 0.0 | 0.00 | 0.00 | 0.00 | 82 | 1018.2 |
| 20260504033109 | 49 | 0 | 0.0 | 0.0 | 0.00 | 0.00 | 0.00 | 81 | 1018.4 |
| 20260504031559 | 50 | 0 | 0.0 | 0.0 | 0.00 | 0.00 | 0.00 | 79 | 1018.3 |
| 20260504030114 | 50 | 0 | 0.0 | 0.0 | 0.00 | 0.00 | 0.00 | 76 | 1018.1 |
| 20260504024557 | 51 | 0 | 0.0 | 0.0 | 0.00 | 0.00 | 0.00 | 75 | 1018.3 |
| 20260504023058 | 52 | 0 | 0.0 | 0.0 | 0.00 | 0.00 | 0.00 | 74 | 1018.0 |
| 20260504021558 | 53 | 0 | 0.0 | 0.0 | 0.00 | 0.00 | 0.00 | 72 | 1017.8 |
| 20260504020106 | 54 | 0 | 0.0 | 0.0 | 0.00 | 0.00 | 0.00 | 70 | 1017.5 |
| 20260504014605 | 54 | 0 | 0.0 | 0.0 | 0.00 | 0.00 | 0.00 | 69 | 1017.4 |
| 20260504013057 | 56 | 0 | 0.0 | 0.9 | 0.00 | 0.00 | 0.00 | 67 | 1017.1 |
| 20260504011558 | 58 | 0 | 0.0 | 1.7 | 0.00 | 0.00 | 0.00 | 61 | 1017.0 |
| 20260504004559 | 59 | 0 | 0.0 | 1.7 | 0.00 | 0.00 | 0.00 | 61 | 1016.8 |
| 20260504003101 | 61 | 174 | 0.0 | 1.7 | 0.00 | 0.00 | 0.00 | 54 | 1016.6 |
| 20260504001601 | 63 | 0 | 0.0 | 1.7 | 0.00 | 0.00 | 0.00 | 53 | 1016.7 |
| 20260503234558 | 65 | 161 | 0.0 | 3.5 | 0.00 | 0.00 | 0.00 | 45 | 1016.5 |
| 20260503233100 | 67 | 171 | 0.9 | 4.3 | 0.00 | 0.00 | 0.00 | 42 | 1016.5 |
| 20260503231556 | 67 | 191 | 0.9 | 7.0 | 0.00 | 0.00 | 0.00 | 40 | 1016.5 |
| 20260503230111 | 68 | 0 | 0.9 | 6.1 | 0.00 | 0.00 | 0.00 | 39 | 1016.5 |
| 20260503224556 | 68 | 176 | 1.7 | 5.2 | 0.00 | 0.00 | 0.00 | 38 | 1016.4 |
| 20260503223112 | 68 | 156 | 1.7 | 7.8 | 0.00 | 0.00 | 0.00 | 37 | 1016.5 |
| 20260503221558 | 69 | 178 | 0.9 | 6.1 | 0.00 | 0.00 | 0.00 | 36 | 1016.5 |
| 20260503220056 | 69 | 138 | 1.7 | 7.8 | 0.00 | 0.00 | 0.00 | 35 | 1016.5 |
| 20260503214600 | 69 | 180 | 0.9 | 7.0 | 0.00 | 0.00 | 0.00 | 36 | 1016.5 |
| 20260503213058 | 69 | 273 | 1.7 | 7.0 | 0.00 | 0.00 | 0.00 | 37 | 1016.7 |
| 20260503211602 | 69 | 157 | 1.7 | 8.7 | 0.00 | 0.00 | 0.00 | 36 | 1016.8 |
| 20260503210101 | 69 | 142 | 0.9 | 6.1 | 0.00 | 0.00 | 0.00 | 36 | 1017.0 |
| 20260503204600 | 69 | 188 | 1.7 | 8.7 | 0.00 | 0.00 | 0.00 | 35 | 1017.1 |
| 20260503203102 | 69 | 221 | 3.5 | 10.4 | 0.00 | 0.00 | 0.00 | 38 | 1017.3 |
| 20260503201557 | 68 | 136 | 1.7 | 8.7 | 0.00 | 0.00 | 0.00 | 38 | 1017.7 |
| 20260503200057 | 69 | 134 | 2.6 | 8.7 | 0.00 | 0.00 | 0.00 | 40 | 1017.9 |
| 20260503194622 | 68 | 148 | 2.6 | 7.8 | 0.00 | 0.00 | 0.00 | 40 | 1018.3 |
| 20260503193058 | 67 | 153 | 1.7 | 7.8 | 0.00 | 0.00 | 0.00 | 41 | 1018.5 |
| 20260503191608 | 68 | 190 | 2.6 | 7.0 | 0.00 | 0.00 | 0.00 | 42 | 1018.8 |
| 20260503190059 | 67 | 129 | 2.6 | 7.8 | 0.00 | 0.00 | 0.00 | 45 | 1018.9 |
| 20260503184557 | 67 | 153 | 2.6 | 8.7 | 0.00 | 0.00 | 0.00 | 44 | 1019.2 |
| 20260503183103 | 66 | 153 | 1.7 | 7.0 | 0.00 | 0.00 | 0.00 | 44 | 1019.3 |
| 20260503181606 | 66 | 148 | 1.7 | 9.6 | 0.00 | 0.00 | 0.00 | 42 | 1019.5 |
| 20260503180058 | 66 | 182 | 1.7 | 9.6 | 0.00 | 0.00 | 0.00 | 46 | 1019.6 |
| 20260503174616 | 65 | 153 | 1.7 | 5.2 | 0.00 | 0.00 | 0.00 | 42 | 1019.8 |
| 20260503173107 | 64 | 169 | 1.7 | 7.8 | 0.00 | 0.00 | 0.00 | 44 | 1019.9 |
| 20260503171559 | 64 | 174 | 2.6 | 7.8 | 0.00 | 0.00 | 0.00 | 45 | 1020.3 |
| 20260503170110 | 62 | 215 | 2.6 | 7.0 | 0.00 | 0.00 | 0.00 | 45 | 1020.4 |
| 20260503120112 | 40 | 0 | 0.0 | 0.0 | 0.00 | 0.00 | 0.00 | 92 | 1021.1 |
| 20260503081557 | 39 | 0 | 0.0 | 0.9 | 0.00 | 0.00 | 0.00 | 90 | 1018.8 |
| 20260503071600 | 40 | 309 | 0.0 | 1.7 | 0.00 | 0.00 | 0.00 | 88 | 1018.1 |
| 20260503054559 | 42 | 0 | 0.9 | 2.6 | 0.00 | 0.00 | 0.00 | 84 | 1017.9 |
| 20260503053058 | 43 | 320 | 0.0 | 2.6 | 0.00 | 0.00 | 0.00 | 85 | 1017.9 |
| 20260503051603 | 43 | 321 | 0.0 | 0.9 | 0.00 | 0.00 | 0.00 | 84 | 1017.9 |
| 20260503050056 | 43 | 0 | 0.0 | 1.7 | 0.00 | 0.00 | 0.00 | 83 | 1018.0 |
| 20260503044615 | 43 | 0 | 0.0 | 0.0 | 0.00 | 0.00 | 0.00 | 84 | 1017.8 |
| 20260503043108 | 44 | 0 | 0.0 | 0.0 | 0.00 | 0.00 | 0.00 | 83 | 1017.7 |
| 20260503041613 | 44 | 0 | 0.0 | 0.0 | 0.00 | 0.00 | 0.00 | 80 | 1017.7 |